Regional Weather Roundup
Issued by NWS

Home | Current Version | Previous Version | Text Only | Print | Product List | Glossary Off
Versions: 1 2 3 4 5 6 7 8 9 10 11 12 13 14 15 16 17 18 19 20 21 22 23 24 25 26 27 28 29 30 31 32 33 34 35 36 37 38 39 40 41 42 43 44 45 46 47 48 49 50

908
ASUS44 KLIX 290701
RWRLA
LOUISIANA WEATHER ROUNDUP
NATIONAL WEATHER SERVICE NEW ORLEANS LA
200 AM CDT TUE JUL 29 2014

NOTE: "FAIR" INDICATES FEW OR NO CLOUDS BELOW 12,000 FEET WITH NO
      SIGNIFICANT WEATHER AND/OR OBSTRUCTIONS TO VISIBILITY.
      SKY/WX - SKY CONDITION AND SIGNIFICANT WEATHER.
      TMP - AIR TEMPERATURE.    DP   - DEWPOINT TEMPERATURE.
      RH  - RELATIVE HUMIDITY.  PRES - PRESSURE.
      HX  - HEAT INDEX.         WCI  - WIND CHILL INDEX.

*  THESE STATIONS ARE NOT NWS OR FAA STATIONS AND ARE NOT UNDER
   NWS QUALITY CONTROL.

LAZ040-048-061>063-065-066-069-290800-
SOUTHEAST LOUISIANA

CITY           SKY/WX    TMP DP  RH WIND       PRES   REMARKS
N.O. AUDUBON     N/A     84  76  77 MISG        N/A
N.O. INTL ARPT MOCLDY    83  73  72 N9        30.00S
N.O. LAKEFRONT CLOUDY    84  73  69 NE20      30.00S
N.O. DOWNTOWN* CLOUDY    84  70  61 N6        30.01R
SLIDELL        PTCLDY    77  74  90 N3        29.99S
BATON ROUGE    MOCLDY    76  72  87 CALM      30.00F
BOOTHVILLE     HVY RAIN  80  75  84 NW10      30.01R
BELLE CHASSE   MOCLDY    83  74  74 VRB6      29.99S
BOGALUSA*      FAIR      75  70  84 N3        30.02S
GALLIANO*      NOT AVBL
NEW ROADS*     FAIR      74  73  96 CALM      30.02R
GONZALES*      FAIR      76  76  99 CALM      30.00S
HAMMOND*       PTCLDY    77  73  88 CALM      30.02S
HOUMA*         CLOUDY    81  71  71 CALM      30.01S
PORT FOURCHON* CLOUDY    84  79  84 W12G18    30.01F HX  96

$$

LAZ041-044-053-054-290800-
SOUTHWEST LOUISIANA

CITY           SKY/WX    TMP DP  RH WIND       PRES   REMARKS
LAKE CHARLES   CLOUDY    81  73  76 NW7       30.02F
LAFAYETTE      NOT AVBL
PATTERSON      CLOUDY    75  73  94 W3        30.05R
SALT POINT       N/A     82  75  79 CALM      30.00F
NEW IBERIA     CLOUDY    79  74  84 CALM      30.02R
CHENAULT AIRPK NOT AVBL

$$

LAZ027-028-290800-
CENTRAL LOUISIANA

CITY           SKY/WX    TMP DP  RH WIND       PRES   REMARKS
FORT POLK      MOCLDY    76  72  87 N5        30.04F
ALEXANDRIA INT PTCLDY    77  73  87 CALM      30.03R
ALEXANDRIA     MOCLDY    75  72  90 CALM      30.05R

$$

LAZ001-002-290800-
NORTHWEST LOUISIANA

CITY           SKY/WX    TMP DP  RH WIND       PRES   REMARKS
SHREVEPORT     MOCLDY    77  69  76 N3        30.06S
BARKSDALE AFB  MOCLDY    75  70  83 NE3       30.07R
DTN SHREVEPORT MOCLDY    76  69  79 CALM      30.07S

$$

LAZ014-016-290800-
NORTHEAST LOUISIANA

CITY           SKY/WX    TMP DP  RH WIND       PRES   REMARKS
MONROE         PTCLDY    74  65  73 CALM      30.05S
TALLULAH       PTCLDY    66  64  93 CALM      30.03F

$$




USA.gov is the U.S. government's official web portal to all federal, state and local government web resources and services.